星链-37010(STARLINK-37010)

导读

STARLINK-37010(NORAD编号:68289)是美国SpaceX公司星链(Starlink)卫星互联网项目中的一颗低轨通信卫星,作为星链星座部署计划的组成部分,承担全球卫星互联网组网服务。 该卫星运行于近地轨道,依托星链低轨星座设计,可提供低时延宽带互联网接入,覆盖偏远地区、移动载体等场景,支持应急通信、手机直连等服务能力。卫星配备相控阵天线与推进系统,可完成轨道机动与姿态调整,保障组网运行稳定性,目前该卫星仍在轨正常运行,是星链全球覆盖网络的节点之一。

Basic Information
目录编号:
68289
目录名称:
STARLINK-37010
国际标识:
2026-055AD
轨道中心:
EARTH
卫星名称:
星链-37010
卫星全名:
星链-37010(STARLINK-37010)
卫星状态:
在轨 (已飞行131 天)
发射日期:
2026-03-19 UTC
国别 :
美国 (US)
星等 :
--
Orbit Information
数据来源 国际轨道数据 AOE轨道数据
星历时间 2026-07-27T05:38:49+0800
1天前
查看轨道信息
2026-07-23T09:00:00+0800
5天前
查看轨道信息
半长轴 6840.772km 6840.829km
偏心率 0.000063 0.0000737
轨道倾角 53.158° 53.154°
近地点辐角 80.322° 62.823°
升交点赤经 29.878° 47.920°
平近点角 279.786° 201.859°
近地点 462.204km 462.187km
远地点 463.066km 463.197km
周期 93.846分钟 93.848分钟
每日圈数 15.344232 15.344039
Detailed Information
固有亮度:
5
最大亮度:
2.5
卫星平台:
Starlink V1.0
覆盖范围:
全球
运营商:
太空探索技术公司
运营商所在国:
美国
制造商(研发单位):
太空探索技术公司
制造商所在国:
美国
使用方式:
暂无
Satellite Introduction
Starlink 计划是 SpaceX 推出的全球卫星互联网项目,通过发射低轨道卫星,为全球尤其是偏远地区提供高速、低延迟的互联网服务。自 2019 年起,Starlink 已部署数千颗卫星,旨在缩小全球数字鸿沟,推动互联网普及。该项目还为军事、航空等行业提供通信支持,带来广泛经济效益。
2D Orbit Map
3D Orbit Map
Orbit Altitude Analysis Chart
Orbit Inclination Analysis Chart
Orbit Comprehensive Analysis Chart
View Comprehensive Chart